User: anonymous   Login
Location: Caltech
(34.1382°N, 118.1253°W)
Time: 12:56:58
(UTC-07:00)
Language:

CZ-2C R/B - Orbit

View from above orbital plane
View from above orbital plane
View from above satellite
View from above satellite

Ground track
Ground track

The orbit data is extracted from the following two-line orbital elements,

1 36089U 09061B   17291.91989420 -.00000008 +00000-0 +92683-5 0  9996
2 36089 098.0581 288.2628 0082652 025.5070 031.0544 14.49687184419549
Epoch (UTC): 18 October 2017 22:04:38
Eccentricity: 0.0082652
inclination: 98.0581°
perigee height: 668 km
apogee height: 785 km
right ascension of ascending node: 288.2628°
argument of perigee: 25.5070°
revolutions per day: 14.49687184
mean anomaly at epoch: 31.0544°
orbit number at epoch: 41954

The dashed part of the orbit path shows where the satellite is in the earth's shadow,  

DLR